Shelbyville, IN

7:36 PM EST on December 15, 2019 (GMT -0500)
Shelbyville Municipal

Weather History for KGEZ - November, 2019

Change the Weather History Date:

Saturday, November 16, 2019

  Actual Average Record
Temperature  
Mean Temperature 37 °F 44 °F  
Max Temperature 44 °F 53 °F 70 °F (2001)
Min Temperature 29 °F 34 °F 25 °F (2007)
Degree Days  
Heating Degree Days 28 21  
Month to date heating degree days 466 293  
Since 1 July heating degree days 742 728  
Cooling Degree Days 0 0  
Month to date cooling degree days 0 0  
Year to date cooling degree days 1330 913  
Moisture  
Dew Point 27 °F    
Average Humidity 71    
Maximum Humidity 85    
Minimum Humidity 57    
Precipitation  
Precipitation 0.00 in 0.13 in 1.16 in (2010)
Month to date precipitation 0.45 1.98  
Year to date precipitation 37.79 38.54  
Sea Level Pressure  
Sea Level Pressure 30.33 in    
Wind  
Wind Speed 8 mph (NE)    
Max Wind Speed 16 mph    
Max Gust Speed 21 mph    
Visibility 9 miles    
Events      
T = Trace of Precipitation, MM = Missing Value Source: NWS Daily Summary

Daily Weather History Graph

Daily Weather History Graph

Search for Another Location

Airport or City:

Astronomy

Nov. 16, 2019 Rise Set
Actual Time 7:28 AM EST 5:27 PM EST
Civil Twilight 6:59 AM EST 5:56 PM EST
Nautical Twilight 6:26 AM EST 6:28 PM EST
Astronomical Twilight 5:54 AM EST 7:00 PM EST
Moon 8:59 PM EST 11:21 AM EST
Length of Visible Light 10h 56m
Length of Day
9h 58m
Waning Gibbous, 82% of the Moon is Illuminated
Nov 16
Waning Gibbous
Nov 19
Last Quarter
Nov 26
New
Dec 4
First Quarter
Dec 12
Full

Hourly Weather History & Observations

Time (EST) Temp. Windchill Dew Point Humidity Pressure Visibility Wind Dir Wind Speed Gust Speed Precip Events Conditions
12:53 AM 35.1 °F 30.1 °F 27.0 °F 72% 30.39 in 8.0 mi NNE 5.8 mph - N/A   Overcast
1:53 AM 34.0 °F 27.2 °F 27.0 °F 75% 30.37 in 9.0 mi NE 8.1 mph - N/A   Mostly Cloudy
2:04 AM 33.1 °F 24.9 °F 27.0 °F 78% 30.35 in 8.0 mi NE 10.4 mph - N/A   Scattered Clouds
2:53 AM 32.0 °F 25.6 °F 26.1 °F 79% 30.36 in 8.0 mi NNE 6.9 mph - N/A   Clear
3:53 AM 30.0 °F 24.1 °F 25.0 °F 82% 30.35 in 7.0 mi NNE 5.8 mph - N/A   Clear
4:15 AM 32.0 °F 22.5 °F 26.1 °F 79% 30.33 in 7.0 mi ENE 12.7 mph - N/A   Mostly Cloudy
5:53 AM 32.0 °F 24.2 °F 26.1 °F 79% 30.38 in 7.0 mi East 9.2 mph - N/A   Overcast
6:40 AM 30.9 °F 24.3 °F 25.0 °F 79% 30.36 in 7.0 mi East 6.9 mph - N/A   Scattered Clouds
6:53 AM 30.0 °F 24.1 °F 25.0 °F 82% 30.39 in 7.0 mi ENE 5.8 mph - N/A   Clear
7:53 AM 30.0 °F 25.2 °F 25.0 °F 82% 30.41 in 5.0 mi NNE 4.6 mph - N/A   Haze
8:53 AM 32.0 °F 27.5 °F 26.1 °F 79% 30.41 in 5.0 mi NNE 4.6 mph - N/A   Haze
9:53 AM 35.1 °F 27.9 °F 28.0 °F 76% 30.41 in 6.0 mi NE 9.2 mph - N/A   Haze
10:53 AM 37.0 °F 28.5 °F 28.0 °F 70% 30.40 in 9.0 mi East 13.8 mph - N/A   Clear
11:53 AM 39.9 °F 32.9 °F 28.9 °F 65% 30.38 in 10.0 mi East 11.5 mph - N/A   Clear
12:26 PM 43.0 °F 37.2 °F 30.9 °F 62% 30.33 in 10.0 mi NE 10.4 mph - N/A   Mostly Cloudy
12:37 PM 43.0 °F 37.7 °F 30.0 °F 60% 30.32 in 10.0 mi NE 9.2 mph - N/A   Scattered Clouds
12:53 PM 43.0 °F 38.2 °F 30.9 °F 62% 30.33 in 10.0 mi NE 8.1 mph - N/A   Partly Cloudy
1:53 PM 44.1 °F 37.7 °F 30.9 °F 60% 30.30 in 10.0 mi ENE 12.7 mph - N/A   Partly Cloudy
2:53 PM 44.1 °F 37.4 °F 30.0 °F 58% 30.28 in 10.0 mi ENE 13.8 mph - N/A   Clear
3:53 PM 42.1 °F 35.7 °F 28.9 °F 60% 30.27 in 10.0 mi ENE 11.5 mph - N/A   Clear
4:53 PM 39.9 °F 33.9 °F 28.9 °F 65% 30.28 in 10.0 mi ENE 9.2 mph - N/A   Clear
5:53 PM 34.0 °F 28.0 °F 27.0 °F 75% 30.27 in 10.0 mi ENE 6.9 mph - N/A   Clear
6:53 PM 35.1 °F 29.3 °F 27.0 °F 72% 30.27 in 10.0 mi NE 6.9 mph - N/A   Clear
7:53 PM 34.0 °F 28.8 °F 27.0 °F 75% 30.27 in 10.0 mi NE 5.8 mph - N/A   Clear
8:53 PM 34.0 °F 26.6 °F 27.0 °F 75% 30.25 in 10.0 mi NE 9.2 mph - N/A   Clear
9:53 PM 32.0 °F 26.4 °F 26.1 °F 79% 30.25 in 10.0 mi NE 5.8 mph - N/A   Clear
11:53 PM 30.0 °F 24.1 °F 25.0 °F 82% 30.21 in 10.0 mi NE 5.8 mph - N/A   Clear